User: anonymous   Login
Location: Unspecified
(0.0000°N, 0.0000°E)
Time: 04:37:46
(UTC+00:00)
Language:

PAYLOAD C - Orbit

View from above orbital plane
View from above orbital plane
View from above satellite
View from above satellite

Ground track
Ground track

The orbit data is extracted from the following two-line orbital elements,

1 27842U 03031C   17324.72190954  .00000055  00000-0  44403-4 0  9993
2 27842  98.6832 330.1466 0008495 223.9526 136.0977 14.22133947746713
Epoch (UTC): 20 November 2017 17:19:32
Eccentricity: 0.0008495
inclination: 98.6832°
perigee height: 812 km
apogee height: 824 km
right ascension of ascending node: 330.1466°
argument of perigee: 223.9526°
revolutions per day: 14.22133947
mean anomaly at epoch: 136.0977°
orbit number at epoch: 74671

The dashed part of the orbit path shows where the satellite is in the earth's shadow,  

DLR